CAPE
8 6 7 22 28 22 52 12 0 0 0 0 0 0 0 0 0 0 3 0 4 1 0 1 0 0 0 0 0 0 0 0 0 0 0 0 0 0 0 0 0 0 0 0
11 9 11 29 19 36 21 0 0 0 0 0 0 0 0 0 0 0 0 0 0 0 0 0 0 0 0 0 1 0 0 0 0 0 0 0 0 0 0 0 0 0 0 0
14 7 12 14 31 52 41 0 0 0 0 0 0 0 0 0 0 0 0 0 1 0 0 0 0 0 0 0 3 0 0 0 0 0 0 0 0 0 0 0 0 0 0 0
5 9 11 9 12 2 5 0 0 0 0 0 0 0 0 0 0 0 0 0 0 0 0 0 0 0 0 0 0 2 0 1 0 0 0 0 0 0 0 0 0 0 0 0
11 9 15 20 15 2 4 26 10 0 0 0 0 0 0 0 0 0 0 0 0 0 0 0 0 0 0 0 0 0 1 0 0 0 0 0 0 0 0 0 0 0 0 0
13 7 6 18 43 17 8 8 0 0 0 0 0 0 0 0 0 0 0 0 0 0 0 0 0 0 0 0 0 0 1 0 0 0 0 0 0 0 0 0 0 0 0 0
15 12 7 15 26 42 23 0 0 0 0 0 0 0 0 0 0 0 0 0 0 0 0 0 0 0 0 0 0 0 0 1 9 0 0 0 0 0 0 0 0 0 0 0
14 15 14 27 23 23 5 6 2 0 0 0 0 0 0 0 0 0 0 0 0 0 0 0 0 0 2 0 0 0 0 0 2 4 0 0 0 0 0 0 0 0 0 0
15 18 13 25 20 42 17 1 0 0 0 0 0 0 0 0 0 0 0 0 0 0 0 0 0 0 0 0 0 0 0 0 0 5 0 0 0 0 0 0 0 0 0 0
16 19 12 22 10 36 24 0 1 3 0 0 0 0 0 0 0 0 0 0 0 0 0 0 0 0 0 0 0 0 0 0 0 4 4 7 0 0 1 19 0 0 6 0
17 28 13 15 6 23 29 6 0 4 1 0 0 0 0 0 0 0 0 0 0 0 0 0 0 0 0 0 0 0 0 0 0 0 2 14 0 0 0 2 0 0 0 0
19 25 29 19 23 20 24 1 0 3 14 0 0 1 0 0 0 0 1 0 1 0 0 0 0 0 0 0 0 0 0 2 0 0 0 0 0 0 1 3 1 0 0 0
14 25 21 36 14 24 19 13 0 2 1 0 2 0 0 0 0 0 1 0 0 0 0 5 1 2 0 0 0 4 0 4 0 3 0 0 1 1 1 3 2 1 0 0
14 18 25 9 14 19 14 2 2 3 3 1 0 0 0 0 0 0 0 0 0 2 3 2 0 0 0 2 5 0 0 0 0 0 0 0 0 0 1 2 1 1 0 0
5 13 10 2 15 9 2 0 0 0 0 0 0 0 0 0 0 0 0 0 0 0 1 0 0 3 4 0 0 0 0 0 1 0 0 0 0 0 0 0 0 0 1 0
7 9 5 3 14 0 1 0 0 0 0 0 0 0 0 0 0 0 0 0 0 0 0 0 0 0 0 0 0 0 0 0 0 0 0 0 0 0 0 0 1 0 0 0
6 6 3 0 3 4 0 0 3 15 2 0 0 0 0 0 0 0 0 0 0 0 0 0 0 0 0 0 0 0 0 0 0 0 0 0 0 0 0 1 0 0 0 0
1 1 1 0 2 1 2 0 0 6 3 0 0 0 0 0 0 0 0 0 1 0 0 0 0 0 0 0 0 0 0 0 0 0 0 0 0 0 0 0 0 0 0 0
0 0 0 0 0 0 0 0 1 0 0 0 0 0 0 0 0 0 0 4 0 0 0 0 0 0 0 0 0 0 0 0 0 0 0 0 0 0 0 0 0 0 0 0
0 0 0 0 0 0 0 0 0 0 0 0 0 0 0 0 0 0 0 0 0 0 0 0 0 0 0 0 0 0 0 0 0 0 0 0 0 0 0 0 0 0 0 0
0 0 0 0 0 0 0 0 0 0 0 0 0 0 0 0 0 0 0 0 0 0 0 0 0 0 0 0 0 0 0 0 0 0 0 0 0 0 0 0 0 0 0 0
0 1 1 0 0 0 0 0 0 0 0 0 0 0 0 0 0 0 0 0 0 0 0 0 0 0 0 0 0 0 0 0 0 0 0 0 0 0 0 0 0 0 0 0
0 0 0 0 0 0 0 0 0 0 0 0 0 0 0 0 0 0 0 0 0 0 0 0 0 0 0 0 0 0 0 0 0 0 0 0 0 0 0 0 0 0 0 0
0 0 0 0 0 0 0 0 0 0 0 0 0 0 0 0 0 0 0 0 0 0 0 0 0 0 0 0 0 0 0 0 0 0 0 0 0 0 0 0 0 0 0 0
0 0 0 0 0 0 0 0 0 0 0 0 0 0 0 0 0 0 0 0 0 0 0 0 0 0 0 0 0 0 0 0 0 0 0 0 0 0 0 0 0 0 0 0
0 0 0 0 0 0 0 0 0 0 0 0 0 0 0 0 0 0 0 0 0 0 0 0 0 0 0 0 0 0 0 0 0 0 0 0 0 0 0 0 0 0 0 0
0 0 0 0 0 0 0 0 0 0 0 0 0 0 0 0 0 0 0 0 0 0 0 0 0 0 0 0 0 0 0 0 0 0 0 0 0 0 0 0 0 0 0 0
CIN
0 -1 0 0 0 -1 -3 0 0 0 0 0 0 0 0 0 0 0 -5 0 -1 0 0 0 0 0 0 0 0 0 0 0 0 0 0 0 0 0 0 0 0 0 0 0
0 0 0 -1 -1 0 0 0 0 0 0 0 0 0 0 0 0 0 -1 0 0 0 0 0 0 0 0 0 0 0 0 0 0 0 0 0 0 0 0 0 0 0 0 0
-1 0 0 -1 0 -1 -1 0 0 0 0 0 0 0 0 0 0 0 0 0 -1 0 0 0 0 0 0 0 0 0 0 0 0 0 0 0 0 0 0 0 0 0 0 0
-1 -1 0 0 0 0 -2 0 0 0 0 0 0 0 0 0 0 0 0 0 0 0 0 0 0 0 0 0 0 0 0 -22 0 0 0 0 0 0 0 0 0 0 0 0
0 -1 0 0 0 -1 -2 -1 -1 -2 0 0 0 0 0 0 0 0 0 0 0 0 0 0 0 0 0 0 0 0 0 0 0 0 0 0 0 0 0 0 0 0 0 0
-1 -1 -1 0 0 -1 0 -5 0 0 0 0 0 0 0 0 0 0 0 0 0 0 0 0 0 0 0 0 0 0 0 0 0 0 0 0 0 0 0 0 0 0 0 0
0 -1 -1 0 0 -2 -3 0 0 0 0 0 0 0 0 0 0 0 0 0 0 0 0 0 0 0 0 0 0 0 0 0 -29 0 0 -3 0 0 0 0 0 0 0 0
-1 0 0 0 0 0 -5 -5 -1 0 0 0 0 0 0 0 0 0 0 0 0 0 0 0 0 0 -3 -3 0 0 0 0 -37 -29 -12 0 0 0 0 0 0 0 0 0
0 0 0 0 0 0 -3 -5 0 0 0 0 0 0 0 0 0 0 0 0 0 0 0 0 0 0 0 0 0 0 0 0 0 -66 0 0 0 0 0 0 0 0 0 0
0 0 -1 0 0 0 -1 -4 -11 -2 0 0 0 0 0 0 0 0 0 0 0 0 0 0 0 -2 0 0 0 0 0 0 0 -14 -2 -12 0 0 -35 -8 0 0 -64 0
0 0 -1 -3 -2 0 -1 -2 0 -1 -2 0 0 0 0 0 0 0 0 0 0 0 0 0 0 0 0 0 0 0 0 0 0 0 -3 -5 0 0 0 0 0 0 0 0
0 0 0 -1 -1 0 0 -4 0 -5 0 -1 0 -6 0 0 0 0 -5 0 -1 -3 0 0 0 0 0 0 0 0 0 -2 -1 0 0 0 0 0 0 0 0 0 0 0
0 0 0 0 0 0 -1 -1 -1 -3 0 0 0 0 0 0 0 0 0 0 0 0 0 -4 -1 -1 0 0 0 0 0 -13 0 0 0 0 0 0 0 0 0 0 0 0
0 0 0 -1 0 0 0 -7 -4 -4 -1 -1 0 0 0 0 0 0 0 0 -4 -4 -9 -2 -1 -1 0 -1 -1 0 0 0 0 0 0 0 0 0 0 0 0 0 0 0
0 0 0 -1 0 -1 0 -2 0 0 0 0 0 0 0 0 0 0 0 0 0 0 -1 0 0 -1 -2 0 0 0 0 0 0 0 0 0 0 0 0 0 0 0 0 0
0 0 0 0 0 -6 -13 0 0 0 0 0 0 0 0 0 0 0 0 0 0 0 0 0 0 0 0 0 0 0 0 0 0 0 0 0 0 0 0 0 0 0 0 0
0 0 0 0 -1 -8 0 0 0 0 -4 0 0 0 0 0 0 0 0 0 0 0 0 0 0 0 0 0 0 0 0 0 0 0 0 0 0 0 0 0 0 0 0 0
0 0 0 0 -1 -2 -1 -8 0 -1 -5 0 0 0 0 0 0 0 0 0 -4 0 0 0 0 0 0 0 0 0 0 0 0 0 0 0 0 0 0 0 0 0 0 0
0 0 0 0 0 0 0 0 -1 0 0 0 0 0 0 0 0 0 0 -4 0 0 0 0 0 0 0 0 0 0 0 0 0 0 0 0 0 0 0 0 0 0 0 0
0 0 0 0 0 0 0 0 -2 0 0 0 0 0 0 0 0 0 0 0 0 0 0 0 0 0 0 0 0 0 0 0 0 0 0 0 0 0 0 0 0 0 0 0
0 0 0 0 0 0 0 0 0 0 0 0 0 0 0 0 0 0 0 0 0 0 0 0 0 0 0 0 0 0 0 0 0 0 0 0 0 0 0 0 0 0 0 0
0 0 -2 -2 0 0 0 0 0 0 0 0 0 0 0 0 0 0 0 0 0 0 0 0 0 0 0 0 0 0 0 0 0 0 0 0 0 0 0 0 0 0 0 0
0 0 0 0 0 0 0 0 0 0 0 0 0 0 0 0 0 0 0 0 0 0 0 0 0 0 0 0 0 0 0 0 0 0 0 0 0 0 0 0 0 0 0 0
0 0 0 0 0 0 0 0 0 0 0 0 0 0 0 0 0 0 0 0 0 0 0 0 0 0 0 0 0 0 0 0 0 0 0 0 0 0 0 0 0 0 0 0
0 0 0 0 0 0 0 0 0 0 0 0 0 0 0 0 0 0 0 0 0 0 0 0 0 0 0 0 0 0 0 0 0 0 0 0 0 0 0 0 0 0 0 0
0 0 0 0 0 0 0 0 0 0 0 0 0 0 0 0 0 0 0 0 0 0 0 0 0 0 0 0 0 0 0 0 0 0 0 0 0 0 0 0 0 0 0 0
0 0 0 0 0 0 0 0 0 0 0 0 0 0 0 0 0 0 0 0 0 0 0 0 0 0 0 0 0 0 0 0 0 0 0 0 0 0 0 0 0 0 0 0
Wind_Speed
52 55 59 55 48 42 32 25 25 20 26 29 26 29 29 32 32 31 28 30 31 29 36 34 34 38 33 33 39 41 43 41 49 41 34 34 36 38 38 46 47 49 47 44
52 54 57 53 48 41 35 27 24 22 19 21 26 27 30 29 34 33 28 30 28 32 31 33 35 30 36 38 33 33 34 39 39 44 37 34 37 36 38 38 35 44 46 46
49 50 52 52 49 42 31 25 26 22 19 15 26 31 32 34 33 30 32 33 30 35 35 31 34 32 34 40 37 36 30 35 42 41 37 34 39 36 37 39 49 49 45 36
47 48 47 47 45 41 28 21 22 20 20 20 22 30 33 36 34 29 31 28 32 33 34 36 32 35 37 29 20 26 27 40 37 37 32 29 32 37 40 43 48 46 48 45
45 45 45 42 43 40 32 27 29 23 15 15 18 23 28 34 34 34 34 33 35 34 35 35 40 37 34 30 28 23 25 33 36 41 32 30 35 32 28 34 44 44 42 38
42 43 43 41 36 38 32 26 19 20 16 17 20 21 23 30 36 31 34 36 36 35 33 36 40 42 44 44 42 33 26 25 30 42 34 32 41 37 36 31 31 35 45 41
40 41 41 39 37 32 28 28 20 19 18 14 14 17 22 25 35 37 37 35 36 35 39 40 39 40 40 39 40 37 36 33 31 36 30 49 38 30 31 36 37 33 38 35
39 39 37 37 36 30 27 27 25 19 20 18 19 15 21 22 25 35 35 34 32 37 38 35 29 26 24 23 23 30 37 36 37 40 38 37 35 32 32 33 43 37 43 41
38 37 35 33 31 30 27 27 22 17 16 19 19 21 21 21 22 30 29 33 33 32 26 25 25 27 29 28 26 22 29 35 36 28 32 39 33 31 27 21 37 26 25 30
37 36 34 32 34 32 28 24 22 19 13 20 19 25 20 18 18 26 32 32 35 26 27 25 24 23 25 26 28 30 28 31 45 43 38 31 31 34 21 31 32 30 20 22
36 35 32 29 29 26 25 22 20 21 13 12 9 11 10 4 8 7 26 34 26 26 22 22 21 23 22 22 24 20 24 28 30 38 40 43 31 25 28 33 34 32 29 23
36 34 31 30 28 25 21 20 19 18 9 4 6 7 8 4 6 5 17 21 29 24 23 24 24 30 25 25 24 20 17 20 22 21 24 23 24 17 27 30 31 31 33 28
35 33 30 28 25 22 19 17 19 20 13 8 17 6 4 5 3 1 7 19 12 18 20 25 25 27 25 27 28 29 28 25 26 24 20 29 24 26 30 28 28 32 31 25
34 33 31 27 27 23 18 17 18 20 16 12 17 27 22 16 10 3 3 2 6 7 22 28 28 30 27 29 32 35 30 31 30 29 25 30 21 32 35 32 33 32 28 26
34 32 32 27 27 25 20 16 17 17 21 17 8 9 16 21 9 6 7 6 7 6 9 21 26 25 26 31 28 26 27 30 31 34 38 34 40 38 37 36 34 32 30 27
33 31 32 26 26 24 23 22 17 16 16 18 18 13 11 7 1 6 8 4 5 9 5 13 20 19 23 25 23 24 32 35 37 43 44 43 44 40 36 40 38 35 32 28
34 31 28 25 25 20 23 22 19 16 14 15 12 11 12 10 5 5 3 1 3 3 5 7 11 21 22 21 28 39 39 39 41 38 43 42 36 44 43 41 36 30 28 24
35 32 28 22 21 21 18 20 23 19 17 16 14 11 12 28 0 8 11 12 11 11 13 18 20 19 22 21 36 38 40 41 38 41 43 45 46 44 39 34 30 28 25 22
35 33 24 22 21 21 18 6 13 17 18 20 18 19 12 32 17 8 17 17 14 19 22 19 19 22 24 33 38 38 40 40 43 43 42 40 40 38 35 32 28 25 23 18
33 32 29 28 23 16 18 18 21 22 24 24 25 24 15 21 29 18 25 16 15 18 22 18 20 22 30 31 34 36 38 38 38 38 37 36 34 31 30 29 25 21 19 16
35 35 31 23 21 19 19 20 23 22 22 26 29 31 38 20 17 17 20 24 22 19 20 18 20 28 34 37 37 38 37 35 33 30 29 28 27 26 24 23 20 17 15 14
29 25 23 20 21 20 20 22 21 22 21 28 29 35 29 23 19 14 21 22 21 21 22 19 19 28 33 34 36 35 33 32 30 28 25 23 21 20 19 18 15 13 12 10
25 24 22 21 21 23 24 25 21 21 25 27 33 35 26 25 21 22 23 22 22 21 21 20 21 31 31 30 29 23 28 29 29 28 25 23 21 19 16 13 10 8 9 10
28 26 25 23 23 22 20 20 18 18 22 29 30 21 20 23 25 23 23 22 21 20 20 21 26 29 30 29 20 22 24 27 26 25 24 23 21 20 17 14 10 8 10 11
25 24 26 23 20 19 19 19 20 21 23 25 21 18 18 21 20 23 21 21 21 20 20 22 26 25 24 26 25 25 25 26 27 24 22 20 18 16 16 14 11 8 11 14
25 24 23 23 20 21 20 20 20 22 24 21 18 19 19 20 20 20 20 18 18 19 21 24 26 25 25 25 26 26 26 25 24 24 23 22 20 17 15 14 14 12 15 15
25 25 25 22 21 21 20 20 20 23 21 21 20 20 18 18 18 19 19 18 19 24 24 25 25 26 26 26 26 26 25 25 25 24 24 23 21 20 19 18 17 17 17 16
Wind_Direction
0 0 359 359 359 359 8 360 354 8 2 357 356 343 335 326 317 313 311 305 305 303 290 274 268 263 266 296 264 243 243 249 248 251 258 256 250 252 247 252 256 258 264 266
2 3 4 6 7 9 6 4 356 5 11 358 351 347 340 335 311 311 313 304 303 304 298 277 273 278 285 291 274 250 239 245 243 249 256 256 251 250 250 255 264 258 258 265
5 5 7 9 12 12 11 8 4 9 10 15 340 332 335 329 326 313 310 300 300 297 290 282 268 270 280 287 269 264 254 243 241 245 253 253 253 252 250 251 255 257 259 267
5 6 7 9 11 13 16 17 12 6 355 353 342 331 328 320 324 329 315 306 299 294 289 278 256 273 277 282 282 266 259 243 237 249 258 264 263 258 254 250 253 257 262 263
5 6 7 8 11 14 21 14 359 5 348 343 341 341 333 324 317 316 310 299 293 293 284 274 265 270 267 263 273 284 263 249 242 243 252 263 261 264 264 257 257 260 266 271
5 5 7 9 11 17 17 14 13 354 347 348 351 344 346 333 319 322 313 296 292 290 288 283 272 269 266 257 259 265 263 255 244 247 247 254 256 257 263 267 266 264 261 267
4 4 6 8 10 13 15 10 4 4 351 351 346 350 348 346 325 307 305 305 292 292 293 290 277 269 259 252 252 257 256 260 260 252 250 247 258 267 265 265 270 268 269 272
3 3 3 5 6 9 10 12 11 8 360 1 343 343 349 353 349 315 303 300 302 296 294 282 272 273 267 272 276 259 247 256 256 252 252 258 261 267 270 270 271 273 269 272
1 0 0 2 3 5 9 9 16 8 359 2 360 348 340 348 355 342 334 315 305 298 298 282 273 271 273 266 275 291 266 255 258 251 250 254 265 275 274 279 273 289 282 282
358 358 358 359 1 3 8 8 16 12 357 353 349 347 352 359 4 349 329 323 311 306 292 282 276 279 286 277 276 274 276 267 252 255 256 266 283 286 285 263 276 294 294 288
356 355 355 355 357 1 6 6 17 14 5 353 10 14 15 23 18 3 351 320 330 313 296 284 286 277 282 277 277 281 288 283 272 257 256 256 304 291 270 284 290 293 293 292
355 353 354 353 353 358 3 10 14 15 12 269 266 230 227 236 245 260 4 352 315 314 302 285 283 276 281 280 269 274 295 300 289 272 271 292 300 305 314 310 298 290 288 289
354 355 353 348 352 1 10 15 20 22 30 27 5 39 60 64 174 46 5 354 13 339 327 299 285 274 277 277 270 269 284 292 281 283 291 290 301 311 317 320 315 303 296 293
355 354 352 354 4 10 18 26 32 37 40 45 15 333 354 14 23 47 138 174 22 15 328 297 287 279 280 274 276 277 285 285 279 276 290 291 286 306 308 312 314 314 309 293
351 353 356 3 11 17 27 38 47 51 43 37 28 17 33 23 79 141 137 166 176 172 11 319 295 294 284 283 284 282 293 285 278 272 286 282 279 292 294 299 298 306 295 295
352 351 359 7 17 27 31 33 49 50 49 46 56 80 96 79 148 113 117 120 197 191 110 4 322 316 295 287 285 292 300 297 288 276 279 279 277 283 293 294 295 301 302 299
355 353 360 7 15 29 29 31 37 41 50 49 54 68 60 45 88 91 79 157 74 125 67 18 347 314 298 299 292 296 299 298 295 286 294 288 295 289 290 289 303 303 303 302
356 359 2 8 13 22 28 30 27 41 45 49 48 44 37 351 75 267 22 29 44 61 44 25 358 348 330 306 306 303 303 301 298 297 294 285 285 287 290 299 303 295 298 300
358 3 10 20 20 15 17 13 35 39 47 38 41 30 27 336 4 11 23 26 57 32 24 21 21 352 335 311 305 307 307 304 297 300 295 290 288 288 291 293 290 292 293 304
7 14 18 15 16 13 16 29 29 26 22 21 21 24 23 16 349 19 341 36 41 21 18 27 16 17 346 315 314 315 314 310 305 302 300 295 289 291 290 287 291 295 295 303
12 10 11 10 18 33 37 30 26 23 25 10 5 5 331 32 33 21 3 348 351 13 19 29 14 348 325 331 337 342 340 329 323 315 312 310 298 297 295 298 296 296 303 312
360 357 4 19 27 34 32 27 26 23 22 6 2 351 1 16 30 49 21 343 343 347 1 23 27 3 328 332 343 342 342 344 344 341 334 329 325 318 308 304 303 305 312 330
3 7 14 23 27 26 24 17 20 15 7 4 354 350 358 4 24 7 10 8 352 350 357 2 16 355 334 332 332 325 339 349 356 356 355 356 353 350 341 320 318 325 350 9
6 14 15 26 26 27 26 19 15 13 6 357 355 10 20 5 359 5 358 5 10 9 358 352 341 337 344 340 318 328 337 349 352 355 357 1 3 5 4 3 339 350 10 18
21 26 23 30 30 33 28 24 19 17 10 6 14 16 17 11 17 6 6 1 360 8 12 355 335 323 321 335 332 336 340 348 356 353 355 357 358 359 2 356 354 350 14 24
32 34 26 21 24 20 21 20 18 15 10 13 19 16 15 13 13 11 9 8 3 355 351 341 334 325 328 330 336 340 346 344 346 351 353 356 356 354 354 355 355 355 12 23
28 25 29 26 24 20 18 16 12 8 13 13 15 15 14 8 8 5 360 1 353 330 332 331 340 336 332 336 342 344 347 352 357 358 357 356 354 354 352 353 351 359 6 11